Home   Weather   Vilnius   Past weeks
Flag for Lithuania

Past Weather in Vilnius, Lithuania — Yesterday and Last 2 Weeks

Now
55 °F

Overcast.


Feels Like: 53 °F
Forecast: 61 / 50 °F
Wind: 8 mph from Southwest

Location: Vilnius Airport

Current Time: Oct 17, 2019 at 7:24:45 pm

Latest Report: Oct 17, 2019 at 5:50 pm


Visibility: N/A

Pressure: 29.98 "Hg

Humidity: 77%

Dew Point: 48 °F

Location of VilniusLocation

Past Weather in Vilnius — Graph

°F

Vilnius Temperature Yesterday

Maximum temperature yesterday: 68 °F (at 2:50 pm)
Minimum temperature yesterday: 54 °F (at 7:50 am)
Average temperature yesterday: 59 °F

High & Low Weather Summary for the Past Weeks

 TemperatureHumidityPressure
High68 °F (Oct 14, 3:20 pm)100% (Oct 2, 4:20 pm)30.12 "Hg (Oct 2, 4:20 pm)
Low28 °F (Oct 6, 12:50 am)56% (Oct 16, 2:50 pm)29.53 "Hg (Oct 2, 4:50 pm)
Average47 °F90%29.85 "Hg
* Reported Oct 2 4:20 pm — Oct 17 4:50 pm, Vilnius. Weather by CustomWeather, © 2019

Note: Actual official high and low records may vary slightly from our data, if they occured in-between our weather recording intervals... More about our weather records

Advertising

Vilnius Weather History for the Previous 24 Hours

Scroll right to see more
 ConditionsComfort  
Time TempWeatherWind HumidityBarometerVisibility
4:50 pm
Thu, Oct 17
55 °FOvercast.12 mph77%29.98 "HgN/A
4:20 pm55 °FOvercast.12 mph77%29.95 "HgN/A
3:50 pm55 °FOvercast.14 mph77%29.95 "HgN/A
3:20 pm55 °FOvercast.14 mph77%29.95 "HgN/A
2:50 pm55 °FOvercast.15 mph77%29.95 "HgN/A
2:20 pm55 °FPartly sunny.15 mph77%29.92 "HgN/A
1:50 pm55 °FOvercast.15 mph77%29.92 "HgN/A
1:20 pm54 °FPartly sunny.15 mph82%29.92 "HgN/A
12:50 pm54 °FPartly sunny.16 mph82%29.92 "HgN/A
12:20 pm54 °FOvercast.18 mph82%29.89 "HgN/A
11:50 am52 °FLight rain. Overcast.16 mph88%29.89 "HgN/A
11:20 am52 °FOvercast.16 mph88%29.89 "HgN/A
10:50 am52 °FLow clouds.16 mph88%29.89 "HgN/A
10:20 am50 °FLight rain. Low clouds.17 mph94%29.86 "Hg6 mi
9:50 am50 °FLight rain. Overcast.16 mph94%29.86 "Hg4 mi
9:26 am52 °FLight rain. Overcast.18 mph88%29.86 "Hg5 mi
9:23 am50 °FLight rain. Overcast.17 mph94%29.86 "Hg6 mi
8:50 am52 °FOvercast.15 mph82%29.83 "HgN/A
8:20 am50 °FLight rain. Overcast.15 mph88%29.83 "HgN/A
7:50 am52 °FPassing clouds.15 mph82%29.83 "HgN/A
7:20 am52 °FPartly cloudy.16 mph82%29.83 "HgN/A
6:50 am52 °FPassing clouds.15 mph82%29.86 "HgN/A
6:20 am50 °FClear.16 mph88%29.86 "Hg10 mi
5:20 am52 °FClear.13 mph88%29.86 "Hg10 mi
4:50 am54 °FPassing clouds.15 mph82%29.86 "HgN/A
4:20 am55 °FPassing clouds.16 mph77%29.86 "HgN/A
3:50 am55 °FPassing clouds.17 mph82%29.86 "HgN/A
3:20 am57 °FMostly cloudy.15 mph82%29.86 "HgN/A
2:50 am57 °FOvercast.12 mph88%29.86 "HgN/A
2:20 am57 °FOvercast.10 mph88%29.86 "HgN/A
1:50 am57 °FMostly cloudy.12 mph82%29.83 "HgN/A
1:20 am57 °FPartly cloudy.9 mph82%29.83 "HgN/A
12:50 am59 °FPassing clouds.12 mph77%29.83 "HgN/A
12:20 am57 °FPartly cloudy.12 mph82%29.83 "HgN/A
11:50 pm
Wed, Oct 16
57 °FPartly cloudy.9 mph82%29.83 "HgN/A
11:20 pm57 °FPassing clouds.8 mph82%29.83 "HgN/A
10:50 pm59 °FPassing clouds.9 mph77%29.83 "HgN/A
10:20 pm59 °FPassing clouds.9 mph77%29.83 "HgN/A
9:50 pm59 °FPassing clouds.9 mph77%29.83 "HgN/A
9:20 pm59 °FPassing clouds.10 mph77%29.83 "HgN/A
8:50 pm57 °FPassing clouds.9 mph82%29.83 "HgN/A
8:20 pm55 °FPassing clouds.8 mph82%29.83 "HgN/A
7:50 pm55 °FClear.8 mph82%29.83 "Hg10 mi
7:20 pm57 °FClear.9 mph82%29.83 "Hg10 mi
Weather by CustomWeather, © 2019

See weather overview